Crown PT.- Scarborou, Trinidad And Tobago

9:07 PM AST on September 25, 2016 (GMT -0400)
Crown Point

Weather History for TTCP - November, 2012

Change the Weather History Date:

Sunday, November 25, 2012

  Actual Average Record
Temperature  
Mean Temperature 80 °F -  
Max Temperature 84 °F 84 °F 91 °F (2015)
Min Temperature 77 °F 75 °F 75 °F (1999)
Cooling Degree Days 16    
Growing Degree Days 30 (Base 50)    
Moisture  
Dew Point 76 °F    
Average Humidity 87    
Maximum Humidity 94    
Minimum Humidity 79    
Precipitation  
Precipitation 0.00 in - - ()
Sea Level Pressure  
Sea Level Pressure 29.90 in    
Wind  
Wind Speed 6 mph ()    
Max Wind Speed 23 mph    
Max Gust Speed -    
Visibility 5.7 miles    
Events Rain    
Averages and records for this station are not official NWS values.
T = Trace of Precipitation, MM = Missing Value Source: Averaged Metar Reports

Daily Weather History Graph

Daily Weather History Graph

Search for Another Location

Airport or City:

Trip Planner

Search our weather history database for the weather conditions in past years. The results will help you decide how hot, cold, wet, or windy it might be!

Date:

Astronomy

Nov. 25, 2012 Rise Set
Actual Time 6:04 AM AST 5:36 PM AST
Civil Twilight 5:41 AM AST 5:59 PM AST
Nautical Twilight 5:15 AM AST 6:25 PM AST
Astronomical Twilight 4:49 AM AST 6:51 PM AST
Moon 3:34 PM AST (11/25) 3:34 AM AST (11/25)
Length of Visible Light 12h 17m
Length of Day
11h 32m
Waxing Gibbous, 92% of the Moon is Illuminated
Nov 25
Waxing Gibbous
Nov 28
Full
Dec 6
Last Quarter
Dec 13
New
Dec 20
First Quarter

Hourly Weather History & Observations

Time (AST) Temp. Heat Index Dew Point Humidity Pressure Visibility Wind Dir Wind Speed Gust Speed Precip Events Conditions
12:00 AM 77.0 °F - 73.4 °F 89% 29.89 in 6.2 mi Calm Calm - N/A   Mostly Cloudy
2:00 AM 77.0 °F - 73.4 °F 89% 29.86 in 6.2 mi Calm Calm - N/A   Mostly Cloudy
3:00 AM 77.0 °F - 73.4 °F 89% 29.83 in 6.2 mi Calm Calm - N/A   Mostly Cloudy
4:00 AM 77.0 °F - 75.2 °F 94% 29.83 in 6.2 mi Calm Calm - N/A   Mostly Cloudy
6:00 AM 78.8 °F - 75.2 °F 89% 29.89 in 5.6 mi ENE 5.8 mph - N/A Rain Light Rain Showers
7:00 AM 78.8 °F - 75.2 °F 89% 29.89 in 6.2 mi East 5.8 mph - N/A   Mostly Cloudy
8:00 AM 77.0 °F - 75.2 °F 94% 29.95 in 5.0 mi East 13.8 mph - N/A Rain Light Rain Showers
8:32 AM 80.6 °F 87.1 °F 77.0 °F 89% 29.95 in 3.1 mi East 23.0 mph - N/A Rain Light Rain Showers
9:00 AM 77.0 °F - 75.2 °F 94% 29.95 in 5.0 mi East 13.8 mph - N/A Rain Light Rain Showers
10:00 AM 78.8 °F - 77.0 °F 94% 29.95 in 6.2 mi East 13.8 mph - N/A   Mostly Cloudy
11:00 AM 82.4 °F 92.4 °F 78.8 °F 89% 29.95 in 6.2 mi East 9.2 mph - N/A   Mostly Cloudy
11:40 AM 82.4 °F 92.4 °F 78.8 °F 89% 29.92 in 1.2 mi East 17.3 mph - N/A Rain Rain Showers
12:00 PM 80.6 °F 87.1 °F 77.0 °F 89% 29.92 in 5.0 mi East 10.4 mph - N/A Rain Light Rain Showers
1:00 PM 82.4 °F 92.4 °F 78.8 °F 89% 29.89 in 6.2 mi East 11.5 mph - N/A   Mostly Cloudy
2:00 PM 82.4 °F 92.4 °F 78.8 °F 89% 29.86 in 6.2 mi East 11.5 mph - N/A   Mostly Cloudy
3:00 PM 80.6 °F 88.1 °F 78.8 °F 94% 29.86 in 6.2 mi ENE 6.9 mph - N/A   Mostly Cloudy
4:00 PM 84.2 °F 94.1 °F 77.0 °F 79% 29.86 in 6.2 mi East 12.7 mph - N/A   Scattered Clouds
5:00 PM 84.2 °F 94.1 °F 77.0 °F 79% 29.86 in 6.2 mi East 9.2 mph - N/A   Partly Cloudy
6:00 PM 84.2 °F 94.1 °F 77.0 °F 79% 29.89 in 6.2 mi NE 5.8 mph - N/A   Partly Cloudy
7:00 PM 80.6 °F 86.2 °F 75.2 °F 84% 29.92 in 6.2 mi ENE 5.8 mph - N/A   Partly Cloudy
8:00 PM 78.8 °F - 73.4 °F 83% 29.92 in 6.2 mi East 6.9 mph - N/A   Partly Cloudy
9:00 PM 80.6 °F 85.4 °F 73.4 °F 79% 29.95 in 6.2 mi ENE 11.5 mph - N/A   Partly Cloudy
10:00 PM 80.6 °F 85.4 °F 73.4 °F 79% 29.95 in 6.2 mi East 11.5 mph - N/A   Partly Cloudy
11:00 PM 80.6 °F 85.4 °F 73.4 °F 79% 29.95 in 6.2 mi East 11.5 mph - N/A   Partly Cloudy